Time,TemperatureF,DewpointF,PressureIn,WindDirection,WindDirectionDegrees,WindSpeedMPH,WindSpeedGustMPH,Humidity,HourlyPrecipIn,Conditions,Clouds,dailyrainin,SoftwareType,DateUTC
2013-08-08 00:05:00,75.8,71.0,30.04,South,180,0.0,4.0,86,0.00,,,0.12,weatherlink.com 1.10,2013-08-08 04:05:00,
2013-08-08 00:20:00,75.9,72.0,30.04,SSE,149,0.0,6.0,86,0.00,,,0.00,weatherlink.com 1.10,2013-08-08 04:20:00,
2013-08-08 00:35:00,76.0,72.0,30.04,South,182,0.0,3.0,87,0.00,,,0.00,weatherlink.com 1.10,2013-08-08 04:35:00,
2013-08-08 00:50:00,76.0,72.0,30.03,South,173,1.0,3.0,87,0.00,,,0.00,weatherlink.com 1.10,2013-08-08 04:50:00,
2013-08-08 01:05:00,76.1,72.0,30.04,South,180,0.0,3.0,87,0.00,,,0.00,weatherlink.com 1.10,2013-08-08 05:05:00,
2013-08-08 01:20:00,76.3,73.0,30.04,South,184,0.0,5.0,88,0.00,,,0.00,weatherlink.com 1.10,2013-08-08 05:20:00,
2013-08-08 01:35:00,76.3,73.0,30.04,SSE,165,0.0,2.0,88,0.00,,,0.00,weatherlink.com 1.10,2013-08-08 05:35:00,
2013-08-08 01:50:00,76.4,73.0,30.03,South,184,1.0,5.0,88,0.00,,,0.00,weatherlink.com 1.10,2013-08-08 05:50:00,
2013-08-08 02:05:00,76.4,72.0,30.02,SE,134,1.0,4.0,87,0.00,,,0.00,weatherlink.com 1.10,2013-08-08 06:05:00,
2013-08-08 02:20:00,76.4,72.0,30.02,SSE,159,0.0,4.0,87,0.00,,,0.00,weatherlink.com 1.10,2013-08-08 06:20:00,
2013-08-08 02:35:00,76.4,72.0,30.03,SSW,203,0.0,2.0,87,0.00,,,0.00,weatherlink.com 1.10,2013-08-08 06:35:00,
2013-08-08 02:50:00,76.3,72.0,30.02,SSW,194,0.0,4.0,86,0.00,,,0.00,weatherlink.com 1.10,2013-08-08 06:50:00,
2013-08-08 03:05:00,76.3,72.0,30.02,South,188,0.0,3.0,86,0.00,,,0.00,weatherlink.com 1.10,2013-08-08 07:05:00,
2013-08-08 03:20:00,76.3,72.0,30.02,South,182,0.0,3.0,86,0.00,,,0.00,weatherlink.com 1.10,2013-08-08 07:20:00,
2013-08-08 03:35:00,76.2,72.0,30.02,SSW,194,2.0,4.0,86,0.00,,,0.00,weatherlink.com 1.10,2013-08-08 07:35:00,
2013-08-08 03:50:00,76.1,72.0,30.02,South,190,1.0,5.0,87,0.00,,,0.00,weatherlink.com 1.10,2013-08-08 07:50:00,
2013-08-08 04:06:00,76.0,72.0,30.02,South,172,2.0,3.0,86,0.00,,,0.00,weatherlink.com 1.10,2013-08-08 08:06:00,
2013-08-08 04:21:00,76.0,72.0,30.02,South,173,1.0,4.0,86,0.00,,,0.00,weatherlink.com 1.10,2013-08-08 08:21:00,
2013-08-08 04:36:00,76.0,72.0,30.01,South,171,0.0,3.0,86,0.00,,,0.00,weatherlink.com 1.10,2013-08-08 08:36:00,
2013-08-08 04:51:00,76.0,72.0,30.01,SW,215,1.0,5.0,87,0.00,,,0.00,weatherlink.com 1.10,2013-08-08 08:51:00,
2013-08-08 05:06:00,75.9,72.0,30.01,South,172,0.0,4.0,87,0.00,,,0.00,weatherlink.com 1.10,2013-08-08 09:06:00,
2013-08-08 05:21:00,75.6,72.0,30.01,SSE,165,2.0,3.0,87,0.00,,,0.00,weatherlink.com 1.10,2013-08-08 09:21:00,
2013-08-08 05:36:00,75.4,72.0,30.01,South,173,2.0,4.0,88,0.00,,,0.00,weatherlink.com 1.10,2013-08-08 09:36:00,
2013-08-08 05:51:00,75.4,72.0,30.02,SSW,193,1.0,4.0,88,0.00,,,0.00,weatherlink.com 1.10,2013-08-08 09:51:00,
2013-08-08 06:06:00,75.4,72.0,30.02,SSE,167,3.0,3.0,88,0.00,,,0.00,weatherlink.com 1.10,2013-08-08 10:06:00,
2013-08-08 06:21:00,75.3,72.0,30.03,SSE,165,1.0,3.0,88,0.00,,,0.00,weatherlink.com 1.10,2013-08-08 10:21:00,
2013-08-08 06:36:00,75.3,72.0,30.03,SSW,198,1.0,3.0,88,0.00,,,0.00,weatherlink.com 1.10,2013-08-08 10:36:00,
2013-08-08 06:51:00,75.3,72.0,30.04,SSE,155,0.0,4.0,88,0.00,,,0.00,weatherlink.com 1.10,2013-08-08 10:51:00,
2013-08-08 07:06:00,75.4,72.0,30.04,South,190,3.0,4.0,88,0.00,,,0.00,weatherlink.com 1.10,2013-08-08 11:06:00,
2013-08-08 07:21:00,75.4,72.0,30.04,South,175,0.0,3.0,88,0.00,,,0.00,weatherlink.com 1.10,2013-08-08 11:21:00,
2013-08-08 07:36:00,75.6,72.0,30.04,SSW,202,0.0,4.0,89,0.00,,,0.00,weatherlink.com 1.10,2013-08-08 11:36:00,
2013-08-08 07:51:00,75.8,72.0,30.04,SSW,194,0.0,4.0,88,0.00,,,0.00,weatherlink.com 1.10,2013-08-08 11:51:00,
2013-08-08 08:06:00,76.1,72.0,30.04,South,173,1.0,3.0,88,0.00,,,0.00,weatherlink.com 1.10,2013-08-08 12:06:00,
2013-08-08 08:21:00,76.2,73.0,30.05,South,188,1.0,2.0,88,0.00,,,0.00,weatherlink.com 1.10,2013-08-08 12:21:00,
2013-08-08 08:36:00,76.3,73.0,30.05,South,186,1.0,3.0,88,0.00,,,0.00,weatherlink.com 1.10,2013-08-08 12:36:00,
2013-08-08 08:51:00,76.7,73.0,30.05,South,173,4.0,5.0,87,0.00,,,0.00,weatherlink.com 1.10,2013-08-08 12:51:00,
2013-08-08 09:06:00,77.2,73.0,30.05,South,179,3.0,4.0,86,0.00,,,0.00,weatherlink.com 1.10,2013-08-08 13:06:00,
2013-08-08 09:21:00,77.6,73.0,30.05,South,186,1.0,5.0,85,0.00,,,0.00,weatherlink.com 1.10,2013-08-08 13:21:00,
2013-08-08 09:36:00,77.7,73.0,30.04,South,184,0.0,5.0,85,0.00,,,0.00,weatherlink.com 1.10,2013-08-08 13:36:00,
2013-08-08 09:51:00,78.0,73.0,30.04,South,178,0.0,3.0,85,0.00,,,0.00,weatherlink.com 1.10,2013-08-08 13:51:00,
2013-08-08 10:06:00,78.3,73.0,30.05,WSW,246,1.0,4.0,84,0.00,,,0.00,weatherlink.com 1.10,2013-08-08 14:06:00,
2013-08-08 10:21:00,78.7,73.0,30.05,SSW,195,0.0,3.0,83,0.00,,,0.00,weatherlink.com 1.10,2013-08-08 14:21:00,
2013-08-08 10:36:00,79.1,73.0,30.05,South,170,0.0,5.0,82,0.00,,,0.00,weatherlink.com 1.10,2013-08-08 14:36:00,
2013-08-08 10:51:00,79.6,73.0,30.04,SSE,167,2.0,6.0,81,0.00,,,0.00,weatherlink.com 1.10,2013-08-08 14:51:00,
2013-08-08 11:06:00,79.9,74.0,30.04,SSW,192,1.0,4.0,81,0.00,,,0.00,weatherlink.com 1.10,2013-08-08 15:06:00,
2013-08-08 11:21:00,80.2,74.0,30.04,South,176,0.0,4.0,80,0.00,,,0.00,weatherlink.com 1.10,2013-08-08 15:21:00,
2013-08-08 11:36:00,80.1,73.0,30.04,ESE,103,2.0,4.0,80,0.00,,,0.00,weatherlink.com 1.10,2013-08-08 15:36:00,
2013-08-08 11:51:00,81.1,74.0,30.04,SSE,157,0.0,5.0,79,0.00,,,0.00,weatherlink.com 1.10,2013-08-08 15:51:00,
2013-08-08 12:06:00,81.7,75.0,30.03,SSW,192,2.0,5.0,79,0.00,,,0.00,weatherlink.com 1.10,2013-08-08 16:06:00,
2013-08-08 12:21:00,82.2,74.0,30.03,South,174,1.0,5.0,77,0.00,,,0.00,weatherlink.com 1.10,2013-08-08 16:21:00,
2013-08-08 12:36:00,82.9,75.0,30.03,South,171,3.0,4.0,77,0.00,,,0.00,weatherlink.com 1.10,2013-08-08 16:36:00,
2013-08-08 12:51:00,82.6,75.0,30.03,SSE,168,2.0,4.0,77,0.00,,,0.00,weatherlink.com 1.10,2013-08-08 16:51:00,
2013-08-08 13:06:00,82.6,75.0,30.03,SSW,205,2.0,5.0,77,0.00,,,0.00,weatherlink.com 1.10,2013-08-08 17:06:00,
2013-08-08 13:21:00,82.1,74.0,30.03,SSE,165,1.0,4.0,76,0.00,,,0.00,weatherlink.com 1.10,2013-08-08 17:21:00,
2013-08-08 13:36:00,81.5,74.0,30.03,South,175,0.0,5.0,78,0.00,,,0.00,weatherlink.com 1.10,2013-08-08 17:36:00,
2013-08-08 13:51:00,81.4,74.0,30.03,SSW,204,1.0,5.0,79,0.00,,,0.00,weatherlink.com 1.10,2013-08-08 17:51:00,
2013-08-08 14:06:00,82.0,75.0,30.04,South,184,1.0,3.0,79,0.00,,,0.00,weatherlink.com 1.10,2013-08-08 18:06:00,
2013-08-08 14:21:00,82.5,75.0,30.03,SSE,148,1.0,3.0,78,0.00,,,0.00,weatherlink.com 1.10,2013-08-08 18:21:00,
2013-08-08 14:36:00,82.3,75.0,30.03,South,180,1.0,3.0,78,0.00,,,0.00,weatherlink.com 1.10,2013-08-08 18:36:00,
2013-08-08 14:51:00,82.4,75.0,30.03,South,182,0.0,2.0,78,0.00,,,0.00,weatherlink.com 1.10,2013-08-08 18:51:00,
2013-08-08 15:06:00,82.5,75.0,30.02,SE,145,0.0,1.0,77,0.00,,,0.00,weatherlink.com 1.10,2013-08-08 19:06:00,
2013-08-08 15:21:00,82.4,75.0,30.02,SSE,163,0.0,5.0,77,0.00,,,0.00,weatherlink.com 1.10,2013-08-08 19:21:00,
2013-08-08 15:36:00,82.1,74.0,30.01,South,171,3.0,6.0,77,0.00,,,0.00,weatherlink.com 1.10,2013-08-08 19:36:00,
2013-08-08 15:51:00,82.8,75.0,30.01,WSW,244,0.0,4.0,78,0.00,,,0.00,weatherlink.com 1.10,2013-08-08 19:51:00,
2013-08-08 16:06:00,84.1,76.0,30.00,SSW,205,0.0,4.0,76,0.00,,,0.00,weatherlink.com 1.10,2013-08-08 20:06:00,
2013-08-08 16:21:00,83.1,74.0,30.00,SW,236,0.0,4.0,75,0.00,,,0.00,weatherlink.com 1.10,2013-08-08 20:21:00,
2013-08-08 16:36:00,82.7,74.0,29.99,South,178,0.0,4.0,75,0.00,,,0.00,weatherlink.com 1.10,2013-08-08 20:36:00,
2013-08-08 16:51:00,82.7,75.0,29.99,SSE,168,0.0,2.0,77,0.00,,,0.00,weatherlink.com 1.10,2013-08-08 20:51:00,
2013-08-08 17:06:00,83.0,75.0,29.99,South,172,2.0,7.0,77,0.00,,,0.00,weatherlink.com 1.10,2013-08-08 21:06:00,
2013-08-08 17:21:00,82.5,75.0,29.99,SW,217,0.0,1.0,79,0.00,,,0.00,weatherlink.com 1.10,2013-08-08 21:21:00,
2013-08-08 17:36:00,81.6,75.0,29.99,South,175,1.0,3.0,79,0.00,,,0.00,weatherlink.com 1.10,2013-08-08 21:36:00,
2013-08-08 17:52:00,80.8,74.0,30.00,South,186,0.0,2.0,80,0.00,,,0.00,weatherlink.com 1.10,2013-08-08 21:52:00,
2013-08-08 18:07:00,80.3,74.0,29.99,SSE,165,0.0,2.0,80,0.00,,,0.00,weatherlink.com 1.10,2013-08-08 22:07:00,
2013-08-08 18:22:00,80.1,73.0,29.99,SW,219,0.0,3.0,80,0.00,,,0.00,weatherlink.com 1.10,2013-08-08 22:22:00,
2013-08-08 18:37:00,80.1,74.0,29.99,SSE,160,0.0,3.0,81,0.00,,,0.00,weatherlink.com 1.10,2013-08-08 22:37:00,
2013-08-08 19:07:00,79.9,74.0,29.99,South,191,1.0,3.0,81,0.00,,,0.00,weatherlink.com 1.10,2013-08-08 23:07:00,
2013-08-08 19:22:00,79.7,74.0,29.99,WSW,242,0.0,3.0,83,0.00,,,0.00,weatherlink.com 1.10,2013-08-08 23:22:00,
2013-08-08 19:37:00,79.4,74.0,30.00,SSW,213,0.0,3.0,83,0.00,,,0.00,weatherlink.com 1.10,2013-08-08 23:37:00,
2013-08-08 19:52:00,79.1,74.0,30.00,SSE,168,0.0,3.0,84,0.00,,,0.00,weatherlink.com 1.10,2013-08-08 23:52:00,
2013-08-08 20:07:00,79.0,74.0,30.00,ENE,61,0.0,2.0,83,0.00,,,0.00,weatherlink.com 1.10,2013-08-09 00:07:00,
2013-08-08 20:22:00,79.0,74.0,30.00,SSW,200,0.0,3.0,84,0.00,,,0.00,weatherlink.com 1.10,2013-08-09 00:22:00,
2013-08-08 20:37:00,78.8,73.0,30.00,SE,136,0.0,3.0,83,0.00,,,0.00,weatherlink.com 1.10,2013-08-09 00:37:00,
2013-08-08 20:52:00,78.7,73.0,30.00,South,190,0.0,4.0,83,0.00,,,0.00,weatherlink.com 1.10,2013-08-09 00:52:00,
2013-08-08 21:07:00,78.6,73.0,30.00,SSW,201,1.0,3.0,84,0.00,,,0.00,weatherlink.com 1.10,2013-08-09 01:07:00,
2013-08-08 21:37:00,78.3,74.0,30.00,SSW,196,0.0,4.0,86,0.00,,,0.00,weatherlink.com 1.10,2013-08-09 01:37:00,
2013-08-08 21:52:00,78.2,74.0,30.00,SE,144,0.0,2.0,86,0.00,,,0.00,weatherlink.com 1.10,2013-08-09 01:52:00,
2013-08-08 22:07:00,78.0,74.0,30.00,South,174,0.0,6.0,87,0.00,,,0.00,weatherlink.com 1.10,2013-08-09 02:07:00,
2013-08-08 22:22:00,78.0,74.0,30.00,SSW,198,0.0,6.0,87,0.00,,,0.00,weatherlink.com 1.10,2013-08-09 02:22:00,
2013-08-08 22:37:00,77.8,74.0,30.00,SSW,203,4.0,4.0,88,0.00,,,0.00,weatherlink.com 1.10,2013-08-09 02:37:00,
2013-08-08 23:22:00,77.6,74.0,30.00,South,188,0.0,3.0,89,0.00,,,0.00,weatherlink.com 1.10,2013-08-09 03:22:00,
2013-08-08 23:52:00,77.5,74.0,29.99,SW,236,0.0,3.0,89,0.00,,,0.00,weatherlink.com 1.10,2013-08-09 03:52:00,